Showing default

EXPLORER 27, 1328

Orbit data source: Space-Track

EXPLORER 27, 1328 is a payload satellite owned by GSFC (US) in LEO that was launched on Thu, 29 Apr 1965 UTC via an SCOUT X-4 launch vehicle from the Wallops Island (WLPIS). Payload-class satellites include a variety of spacecraft equipped with specific instruments for various scientific and technological missions. These include communications satellites like Starlink; space stations such as the ISS; scientific satellites like the Hubble; Earth observation satellites from companies like Planet Labs, Umbra, and HawkEye 360; GPS; miniature CubeSats for education and research; and military/defense satellites.

Loading next visibility...
Identifier
1328, 1965-032A
Orbit
LEO
Country
Flag of USUS
Related business
Manufacturer
APL
Mission
Spacecraft
Bus & Motor
TRANSIT 5, Unknown motor
Mass
55 kg wet, 55 kg dry
Launch date (UTC)
1965-04-29 (61 years ago)
Launch vehicle
SCOUT X-4
Launch site
Wallops Island (WLPIS)
Object type
Payload
Rocket body
Debris
Shape & HBR
Unknown
Radar Cross Section
Large (>1 m²)

Expand to show TLE details & history
Last TLE update: 10 hours ago

TLE from 10 hours ago
0 EXPLORER 27
1  1328U 65032A   26037.78074458 -.00000028  00000-0  87242-4 0  9999
2  1328  41.1817 215.2636 0242381 347.6167  11.8704 13.38915908970854
Epoch: 2026-02-06T18:44Z
TLE epoch observation values (Epoch: 2026-02-06T18:44:16.331Z)
Latitude
-0.00002°
Longitude
157.28183°
Altitude
935.452 km
Speed
7.472 km/s
True Right ascension
14h 21m 03s
True Declination
0° 00' 00"
Sunlit
Object was in daylight at epoch
Visualization orbit readout
Latitude
Unknown
Longitude
Unknown
Altitude
Unknown
Speed
Unknown
Apparent Right ascension
Unknown
Apparent Declination
Unknown
Sunlit
N/A
Visualization observer readout
Local Sidereal Time
06:35:16
Azimuth
Unknown
Elevation
Unknown
Doppler factor
Unknown
Orbital elements
Apogee altitude
1,297.011 km
Perigee altitude
933.754 km
Semi-major axis
7,493.52 km
Eccentricity
0.02424
Inclination
41.1817°
RAAN
215.2636°
Arg. of periapsis
347.6167°
True anomaly
12.45915°
Mean anomaly
11.8704°
Eccentric anomaly
12.163°
Mean motion
3.34591 °/min
Orbital period
107.59 mins
BSTAR
0.000087242
Loading maneuver chart data...
Computing Atmospheric mass density...
Loading historical data...
Loading historical data...
Loading historical data...
Loading historical data...
Loading historical data...
Loading historical data...
Loading historical data...
Other satellites on launch #32 in the year 1965 (1965-04-29 UTC)

Documentation

Showing up to 5 results
|